Location: Newark
(55.7167°N, 12.5667°E)
Time: 08:03:41
(UTC+00:00)

N. Korean satellite - Pass Details

Date: 15 December 2019
Orbit: 454 x 507 km, 97.2° (Epoch: 28 January)

Event Time Altitude Azimuth Distance (km) Brightness Sun altitude
Rises 04:23:34 0° 22° (NNE) 2,548 10.4 -24.7°
Reaches altitude 10° 04:25:57 10° 37° (NE) 1,653 9.6 -24.4°
Maximum altitude 04:28:53 24° 93° (E) 1,016 8.9 -24.0°
Drops below altitude 10° 04:31:46 10° 149° (SSE) 1,618 9.7 -23.6°
Sets 04:34:04 0° 164° (SSE) 2,480 10.5 -23.3°
